• In Deutschland
  • Länderverzeichnis
  • Für 7 Tage
  • Wassertemperatur
  • Satellitenkarten
  • Wetterkarte
  • Widgets
  • user-avatar
    Anmelden

    Stündliche Wetter Plauen

    Heute, 25 April, Mittwoch

    Zeit Temperatur Niederschläge Wind Luftdruck Luftfeuchtigkeit
    00:00 +12°C° 0 mm 2 m/S 725 mmHg 84%
    01:00 +10°C° 0 mm 3 m/S 724 mmHg 86%
    02:00 +11°C° 0 mm 3 m/S 724 mmHg 86%
    03:00 +11°C° 0 mm 3 m/S 724 mmHg 86%
    04:00 +11°C° 0 mm 4 m/S 724 mmHg 86%
    05:00 +12°C° 0 mm 4 m/S 724 mmHg 84%
    06:00 +13°C° 0 mm 5 m/S 723 mmHg 83%
    07:00 +14°C° 0 mm 6 m/S 723 mmHg 79%
    08:00 +15°C° 0 mm 6 m/S 723 mmHg 74%
    09:00 +16°C° 0 mm 7 m/S 723 mmHg 68%
    10:00 +17°C° 0 mm 8 m/S 723 mmHg 63%
    11:00 +17°C° 0,3 mm 8 m/S 723 mmHg 64%
    12:00 +17°C° 0,3 mm 8 m/S 723 mmHg 65%
    13:00 +17°C° 0,3 mm 8 m/S 723 mmHg 66%
    14:00 +16°C° 0,3 mm 8 m/S 723 mmHg 65%
    15:00 +16°C° 0,3 mm 7 m/S 723 mmHg 65%
    16:00 +16°C° 0,3 mm 7 m/S 723 mmHg 65%
    17:00 +14°C° 0,1 mm 6 m/S 723 mmHg 70%
    18:00 +13°C° 0,1 mm 4 m/S 723 mmHg 75%
    19:00 +12°C° 0,1 mm 3 m/S 723 mmHg 81%
    20:00 +11°C° 0,2 mm 3 m/S 724 mmHg 84%
    21:00 +10°C° 0,2 mm 2 m/S 725 mmHg 88%
    22:00 +9°C° 0,2 mm 2 m/S 725 mmHg 91%
    23:00 +9°C° 0,1 mm 2 m/S 725 mmHg 92%

    Morgen, 26 April, Donnerstag

    Zeit Temperatur Niederschläge Wind Luftdruck Luftfeuchtigkeit
    00:00 +8°C° 0,1 mm 2 m/S 725 mmHg 93%
    01:00 +8°C° 0,1 mm 3 m/S 726 mmHg 94%
    02:00 +7°C° 0 mm 3 m/S 726 mmHg 94%
    03:00 +5°C° 0 mm 3 m/S 726 mmHg 94%
    04:00 +5°C° 0 mm 3 m/S 726 mmHg 93%
    05:00 +5°C° 0 mm 4 m/S 726 mmHg 89%
    06:00 +6°C° 0 mm 5 m/S 726 mmHg 86%
    07:00 +6°C° 0 mm 5 m/S 727 mmHg 82%
    08:00 +7°C° 0 mm 6 m/S 727 mmHg 75%
    09:00 +8°C° 0 mm 6 m/S 727 mmHg 68%
    10:00 +10°C° 0 mm 7 m/S 727 mmHg 61%
    11:00 +10°C° 0,1 mm 7 m/S 727 mmHg 58%
    12:00 +10°C° 0,1 mm 7 m/S 727 mmHg 55%
    13:00 +11°C° 0,1 mm 7 m/S 727 mmHg 51%
    14:00 +11°C° 0,1 mm 7 m/S 727 mmHg 52%
    15:00 +11°C° 0,1 mm 6 m/S 727 mmHg 52%
    16:00 +11°C° 0,1 mm 6 m/S 727 mmHg 53%
    17:00 +10°C° 0,1 mm 5 m/S 727 mmHg 59%
    18:00 +10°C° 0,1 mm 4 m/S 727 mmHg 66%
    19:00 +9°C° 0,1 mm 2 m/S 728 mmHg 72%
    20:00 +8°C° 0 mm 2 m/S 728 mmHg 76%
    21:00 +7°C° 0 mm 2 m/S 728 mmHg 80%
    22:00 +5°C° 0 mm 2 m/S 728 mmHg 84%
    23:00 +5°C° 0 mm 2 m/S 728 mmHg 85%

    übermorgen, 27 April, Freitag

    Zeit Temperatur Niederschläge Wind Luftdruck Luftfeuchtigkeit
    00:00 +5°C° 0 mm 2 m/S 728 mmHg 86%
    01:00 +5°C° 0 mm 1 m/S 728 mmHg 87%
    02:00 +4°C° 0 mm 2 m/S 728 mmHg 87%
    03:00 +4°C° 0 mm 2 m/S 728 mmHg 88%
    04:00 +4°C° 0 mm 2 m/S 728 mmHg 88%
    05:00 +5°C° 0 mm 2 m/S 727 mmHg 84%
    06:00 +7°C° 0 mm 1 m/S 727 mmHg 80%
    07:00 +8°C° 0 mm 1 m/S 727 mmHg 76%
    08:00 +9°C° 0 mm 2 m/S 727 mmHg 67%
    09:00 +12°C° 0 mm 2 m/S 727 mmHg 59%
    10:00 +13°C° 0 mm 3 m/S 726 mmHg 50%
    11:00 +14°C° 0 mm 3 m/S 726 mmHg 47%
    12:00 +16°C° 0 mm 3 m/S 725 mmHg 44%
    13:00 +17°C° 0 mm 3 m/S 725 mmHg 41%
    14:00 +18°C° 0 mm 3 m/S 724 mmHg 42%
    15:00 +18°C° 0 mm 3 m/S 724 mmHg 42%
    16:00 +19°C° 0 mm 3 m/S 723 mmHg 43%
    17:00 +17°C° 0 mm 3 m/S 722 mmHg 51%
    18:00 +16°C° 0 mm 2 m/S 722 mmHg 59%
    19:00 +14°C° 0 mm 2 m/S 722 mmHg 67%
    20:00 +13°C° 0 mm 2 m/S 722 mmHg 71%
    21:00 +13°C° 0 mm 2 m/S 722 mmHg 75%
    22:00 +12°C° 0 mm 2 m/S 722 mmHg 79%
    23:00 +11°C° 0 mm 3 m/S 723 mmHg 81%

    28 April, Samstag

    Zeit Temperatur Niederschläge Wind Luftdruck Luftfeuchtigkeit
    00:00 +10°C° 0 mm 3 m/S 723 mmHg 83%
    01:00 +10°C° 0 mm 3 m/S 723 mmHg 84%
    02:00 +10°C° 0 mm 3 m/S 723 mmHg 86%
    03:00 +9°C° 0 mm 3 m/S 724 mmHg 87%
    04:00 +9°C° 0 mm 3 m/S 724 mmHg 88%
    05:00 +8°C° 0 mm 4 m/S 724 mmHg 85%
    06:00 +8°C° 0 mm 5 m/S 725 mmHg 81%
    07:00 +9°C° 0 mm 6 m/S 725 mmHg 78%
    08:00 +10°C° 0 mm 6 m/S 725 mmHg 71%
    09:00 +12°C° 0 mm 5 m/S 726 mmHg 65%
    10:00 +13°C° 0 mm 5 m/S 726 mmHg 59%
    11:00 +14°C° 0 mm 5 m/S 726 mmHg 56%
    12:00 +14°C° 0 mm 5 m/S 726 mmHg 53%
    13:00 +15°C° 0 mm 4 m/S 726 mmHg 51%
    14:00 +15°C° 0 mm 4 m/S 726 mmHg 51%
    15:00 +17°C° 0 mm 3 m/S 726 mmHg 51%
    16:00 +17°C° 0 mm 3 m/S 726 mmHg 50%
    17:00 +15°C° 0 mm 2 m/S 726 mmHg 58%
    18:00 +14°C° 0 mm 2 m/S 726 mmHg 65%
    19:00 +12°C° 0 mm 1 m/S 726 mmHg 73%
    20:00 +11°C° 0 mm 1 m/S 726 mmHg 78%
    21:00 +10°C° 0 mm 1 m/S 727 mmHg 83%
    22:00 +8°C° 0 mm 1 m/S 727 mmHg 89%
    23:00 +8°C° 0 mm 1 m/S 727 mmHg 90%

    29 April, Sonntag

    Zeit Temperatur Niederschläge Wind Luftdruck Luftfeuchtigkeit
    00:00 +8°C° 0 mm 1 m/S 726 mmHg 91%
    01:00 +8°C° 0 mm 1 m/S 726 mmHg 92%
    02:00 +7°C° 0 mm 2 m/S 726 mmHg 91%
    03:00 +7°C° 0 mm 2 m/S 726 mmHg 90%
    04:00 +7°C° 0 mm 2 m/S 726 mmHg 89%
    05:00 +8°C° 0 mm 2 m/S 726 mmHg 86%
    06:00 +9°C° 0 mm 3 m/S 726 mmHg 83%
    07:00 +10°C° 0 mm 3 m/S 725 mmHg 80%
    08:00 +12°C° 0,1 mm 4 m/S 725 mmHg 77%
    09:00 +14°C° 0,1 mm 4 m/S 725 mmHg 73%
    10:00 +17°C° 0,1 mm 4 m/S 725 mmHg 70%
    11:00 +18°C° 0,1 mm 4 m/S 724 mmHg 69%
    12:00 +19°C° 0,1 mm 4 m/S 724 mmHg 68%
    13:00 +20°C° 0,1 mm 4 m/S 723 mmHg 66%
    14:00 +20°C° 0 mm 4 m/S 723 mmHg 66%
    15:00 +20°C° 0 mm 4 m/S 722 mmHg 66%
    16:00 +21°C° 0 mm 4 m/S 722 mmHg 65%
    17:00 +19°C° 0 mm 3 m/S 721 mmHg 72%
    18:00 +18°C° 0 mm 3 m/S 721 mmHg 78%
    19:00 +17°C° 0 mm 3 m/S 720 mmHg 85%
    20:00 +16°C° 0 mm 2 m/S 720 mmHg 88%
    21:00 +15°C° 0 mm 2 m/S 720 mmHg 92%
    22:00 +14°C° 0 mm 2 m/S 720 mmHg 95%
    23:00 +14°C° 0 mm 2 m/S 719 mmHg 96%

    30 April, Montag

    Zeit Temperatur Niederschläge Wind Luftdruck Luftfeuchtigkeit
    00:00 +13°C° 0 mm 2 m/S 719 mmHg 96%
    01:00 +13°C° 0 mm 2 m/S 718 mmHg 97%
    02:00 +13°C° 0 mm 2 m/S 718 mmHg 97%
    03:00 +13°C° 0 mm 2 m/S 717 mmHg 97%
    04:00 +13°C° 0 mm 2 m/S 717 mmHg 98%
    05:00 +14°C° 0,1 mm 2 m/S 717 mmHg 96%
    06:00 +14°C° 0,1 mm 2 m/S 717 mmHg 94%
    07:00 +15°C° 0,1 mm 2 m/S 716 mmHg 92%
    08:00 +17°C° 0 mm 2 m/S 717 mmHg 85%
    09:00 +19°C° 0 mm 2 m/S 717 mmHg 77%
    10:00 +20°C° 0 mm 3 m/S 717 mmHg 70%
    11:00 +19°C° 0,1 mm 4 m/S 718 mmHg 74%
    12:00 +16°C° 0,1 mm 5 m/S 718 mmHg 77%
    13:00 +15°C° 0,1 mm 6 m/S 719 mmHg 81%
    14:00 +14°C° 0 mm 6 m/S 719 mmHg 80%
    15:00 +13°C° 0 mm 6 m/S 720 mmHg 78%
    16:00 +11°C° 0 mm 6 m/S 721 mmHg 77%
    17:00 +10°C° 0 mm 6 m/S 721 mmHg 78%
    18:00 +9°C° 0 mm 5 m/S 722 mmHg 79%
    19:00 +9°C° 0 mm 5 m/S 722 mmHg 80%
    20:00 +8°C° 0 mm 4 m/S 723 mmHg 82%
    21:00 +7°C° 0 mm 4 m/S 723 mmHg 84%
    22:00 +7°C° 0 mm 3 m/S 724 mmHg 87%
    23:00 +7°C° 0 mm 3 m/S 724 mmHg 88%
    Mehr zeigen